Regional Weather Roundup
Issued by NWS

Home | Current Version | Previous Version | Text Only | Print | Product List | Glossary Off
Versions: 1 2 3 4 5 6 7 8 9 10 11 12 13 14 15 16 17 18 19 20 21 22 23 24 25 26 27 28 29 30 31 32 33 34 35 36 37 38 39 40 41 42 43 44 45 46 47 48 49 50

000
ASUS45 KTFX 240510
RWRMT
MONTANA REGIONAL WEATHER ROUNDUP
NATIONAL WEATHER SERVICE GREAT FALLS MT
1100 PM MDT MON APR 23 2018

NOTE: "FAIR" INDICATES FEW OR NO CLOUDS BELOW 12000 FEET WITH NO
SIGNIFICANT WEATHER AND/OR OBSTRUCTIONS TO VISIBILITY.

MTZ001>007-043-240600-
WEST OF THE DIVIDE

CITY           SKY/WX    TMP DP  RH WIND       PRES   REMARKS
KALISPELL      FAIR      35  26  69 W3        30.41R
MISSOULA       FAIR      45  23  42 E8        30.42R
BUTTE          MOCLDY    34  28  79 CALM      30.44R
MULLAN PASS    FAIR      36  20  52 SE6       30.39S WCI  31
ANACONDA         N/A     30  25  80 W3        30.45R
DEER LODGE       N/A     28  25  86 W6        30.47R WCI  22
HAMILTON         N/A     43  27  52 MISG      30.42R
PLAINS           N/A     41  28  60 CALM      30.39R
RONAN            N/A     46  21  36 CALM      30.43R
$$

MTZ008-052>055-240600-
SOUTHWEST MONTANA

CITY           SKY/WX    TMP DP  RH WIND       PRES   REMARKS
BOZEMAN        FAIR      35  30  82 NE5       30.46R
DILLON         MOCLDY    33  28  81 NE6       30.41R WCI  28
ENNIS          MOCLDY    32  28  86 N10       30.44S WCI  24
W YELLOWSTONE  FAIR      28  23  80 N6        30.37R WCI  22
THREE FORKS      N/A     33  30  89 CALM      30.40R
TWIN BRIDGES     N/A     37  27  68 N10       30.35R WCI  30
$$

MTZ009-010-012-014-046-048-049-054-240600-
EAST SLOPES AND CENTRAL MONTANA

CITY           SKY/WX    TMP DP  RH WIND       PRES   REMARKS
CUT BANK       FAIR      39  20  46 CALM      30.42S
GREAT FALLS    FAIR      36  20  52 S5        30.45R
MALMSTROM AFB  FAIR      37  22  53 SW6       30.45S
HELENA         FAIR      36  29  75 W3        30.45R
CHOTEAU          N/A     39  23  52 SW5       30.46S
CONRAD           N/A     33  26  76 NE5       30.41
WHITE SULPHUR    N/A     28  28 100 CALM      30.45R
$$

MTZ011-013-016-021-045-047-050-051-240600-
NORTH CENTRAL MONTANA

CITY           SKY/WX    TMP DP  RH WIND       PRES   REMARKS
HAVRE          FAIR      36  27  69 S9        30.42S WCI  29
LEWISTOWN      MOCLDY    33  31  92 SE7       30.45R WCI  27
N BAR RANCH    CLOUDY    32  30  93 NW3       30.47R
$$

MTZ017>020-022>027-061-062-240600-
NORTHEAST MONTANA

CITY           SKY/WX    TMP DP  RH WIND       PRES   REMARKS
GLASGOW        CLOUDY    40  26  57 NW7       30.41R
GLENDIVE       FAIR      40  34  79 NW8       30.41R
JORDAN           N/A     40  35  83 W5        30.42R
MALTA          CLEAR     43  27  52 VRB3      30.40S
SIDNEY         FAIR      41  27  57 NW10      30.38R
WOLF POINT     FAIR      35  23  61 SW5       30.41R
PLENTYWOOD       N/A     37  27  65 CALM      30.40R
POPLAR           N/A     39  23  52 N3        30.41R
$$

MTZ028>42-056>058-240600-
SOUTHCENTRAL AND SOUTHEAST MONTANA

CITY           SKY/WX    TMP DP  RH WIND       PRES   REMARKS
BAKER          LGT SNOW  32  32 100 N7        30.40R FOG     WCI  26
BILLINGS       CLOUDY    36  35  96 SW9       30.47S WCI  29
LIVINGSTON     FAIR      33  31  92 E6        30.46R WCI  28
MILES CITY     CLOUDY    35  35 100 SW9       30.44S WCI  28
BIG TIMBER     CLEAR     32  30  93 CALM      30.49R
EKALAKA          N/A     31  28  88 NW8       30.31R WCI  24
FORSYTH          N/A     36  36 100 S7        30.47R WCI  30
$$

REGIONAL REPORTS...DAKOTAS

CITY           SKY/WX    TMP DP  RH WIND       PRES   REMARKS
WILLISTON      FAIR      35  24  64 N5        30.37R
MINOT          FAIR      43  25  49 NW13      30.32R
DICKINSON      RAIN      37  34  89 NE14G24   30.32R WCI  28
BEACH          CLOUDY    37  37 100 W10       30.41R WCI  30
CROSBY         FAIR      34  25  69 CALM      30.38R
TIOGA          FAIR      34  23  64 NE6       30.37R WCI  29
WATFORD CITY   FAIR      37  30  75 N6        30.35S
BISMARCK       LGT RAIN  45  41  86 N20       30.27R
GRAND FORKS    FAIR      46  39  76 N10       30.23R
FARGO          CLOUDY    50  40  68 NE3       30.19R
BUFFALO SD       N/A     35  32  88 N23       30.24R WCI  23
RAPID CITY     CLOUDY    38  31  76 NW38G48   30.21R WCI  24
$$

REGIONAL REPORTS...WYOMING/IDAHO/WASHINGTON

CITY           SKY/WX    TMP DP  RH WIND       PRES   REMARKS
GILLETTE       CLOUDY    33  31  92 NW20      30.38R WCI  21
SHERIDAN       FLURRIES  34  33  96 NW15      30.46R WCI  24
BUFFALO WY     CLOUDY    33  29  85 N18G25    30.41R WCI  22
CODY           FLURRIES  33  28  81 N10       30.46R WCI  25
YELLOWSTONE LA   N/A     23  18  81 CALM      30.38S
IDAHO FALLS    FAIR      40  31  70 N12       30.33R
SALMON         CLOUDY    43  29  57 NW9       30.39R
BOISE          FAIR      51  29  42 SW5       30.22R
SPOKANE        FAIR      55  23  28 NE5       30.36R
$$

REGIONAL REPORTS...ALBERTA

CITY           SKY/WX    TMP DP  RH WIND       PRES   REMARKS
CALGARY        PTCLDY    41  25  52 S8        30.32S
CARDSTON         N/A     39  21  48 SW6         N/A
EDMONTON       CLEAR     46  21  36 S7        30.26S
FORT MCMURRAY  CLEAR     43  21  42 S9        30.16F
HIGH LEVEL     MOCLDY    41  27  56 S2        30.00
LETHBRIDGE     CLEAR     37  25  60 S12G18    30.37F WCI  30
LLOYDMINSTER   CLEAR     39  27  60 S9        30.30S
MEDICINE HAT   CLEAR     41  30  65 SW7       30.39S
MILK RIVER       N/A     37  27  65 S3          N/A
ONEFOUR          N/A     37  27  65 N7          N/A
PEACE RIVER    PTCLDY    41  27  56 SW3       30.14S
PINCHER CREEK  CLEAR     36  23  60 W9        30.36S WCI  29
WATERTON GATE    N/A     41  19  42 S13         N/A
$$

REGIONAL REPORTS...SASKATCHEWAN

CITY           SKY/WX    TMP DP  RH WIND       PRES   REMARKS
CORONACH         N/A     30  21  69 W5          N/A
CYPRESS HILLS    N/A     37  14  38 W2          N/A
ESTEVAN        MOCLDY    32  23  69 N6        30.37R WCI  26
MOOSE JAW        N/A     32  23  69 W3          N/A
PRINCE ALBERT  CLEAR     32  23  69 VRB2      30.34R
REGINA         CLEAR     34  23  64 SW5       30.38R
ROCKGLEN         N/A     37  19  48 NW2         N/A
SASKATOON      CLEAR     36  27  69 SW7       30.36R WCI  30
SWIFT CURRENT  CLEAR     37  23  56 S6        30.38S
VAL MARIE        N/A     30  23  74 E2          N/A
$$



USA.gov is the U.S. government's official web portal to all federal, state and local government web resources and services.